Погода в Кабицыно

Россия / Калужская область     55°08′23″N   36°37′40″E
темп.,
°C
ветер,
м/с
пор.,
м/с
влажн.,
%
обл.,
%
осадки,
мм/ч
давл.,
гПа
погр.,
м
6 мая, чт
чт600:00+9ю3129099 0.0 1007354
03:00+7ююв31096100 0.0 1007233
06:00+8ююв31293100 0.0 1006339
09:00+12ю61377100 0.2 1004983
12:00+15ю816618 0.3 10031765
15:00+15ю91559100 0.6 10021912
18:00+8зюз61289100 1.2 1005895
21:00+6юз41191100 1.2 1008601
7 мая, пт
пт700:00+5юз4119690 0.0 1009462
03:00+4юз3109599 0.0 1010396
06:00+4юз411915 0.0 1011440
09:00+9зюз49620 0.0 1012951
12:00+13юз594297 0.0 10122470
15:00+13юз6104797 0.1 10122221
18:00+12ююз41061100 0.1 10121513
21:00+8ююв31078100 0.1 1012270
8 мая, сб
сб800:00+9ююв41371100 0.1 1011531
03:00+9ююв61563100 0.2 1009763
06:00+8ююв61482100 0.8 1007816
09:00+7юв61595100 5.7 1005971
12:00+9ююв51196100 1.1 1003841
15:00+9юз4992100 3.1 1002611
18:00+9юз71278100 0.3 10031230
21:00+4юз71287100 0.4 10051028
9 мая, вс
вс900:00+4з61394100 0.0 10061036
03:00+5з6118063 0.1 10091075
06:00+4з61074100 0.0 10121148
09:00+7зсз69585 0.1 10141279
12:00+11сз684468 0.0 10162115
15:00+12сз673839 0.0 10182360
18:00+11сз46485 0.0 10211821
21:00+5сз22650 0.0 102423
10 мая, пн
пн1000:00+3сз22700 0.0 102612
03:00+3сз11705 0.0 102710
06:00+4сз11706 0.0 102915
09:00+11ю11491 0.0 1029541
12:00+15юз11405 0.0 10291496
15:00+16сз11376 0.0 10281521
18:00+15вюв12465 0.0 1028734
21:00+8вюв22680 0.0 102915